Home > Weather > Verona > Past weeks

Flag for Italy Past Weather in Verona, Italy — Yesterday and Last 2 Weeks

Now
70 °F

Passing clouds.


Feels Like: 70 °F
Forecast: 64 / 81 °F
Wind: 5 mph from Northeast

Location: Verona / Villafranca

Current Time: Jun 27, 2016 at 2:32:51 AM

Latest Report: Jun 27, 2016 at 1:50 AM


Visibility: N/A

Pressure: 29.86 "Hg

Humidity: 88%

Dew Point: 66 °F

Location of VeronaLocation

Past Weather in Verona — Graph

°F

Verona Temperature Yesterday

Maximum temperature yesterday: 84 °F (at 1:20 PM)
Minimum temperature yesterday: 68 °F (at 3:20 AM)
Average temperature yesterday: 75 °F

High & Low Weather Summary for the Past Weeks

 TemperatureHumidityPressure
High93 °F (Jun 25, 3:50 PM)100% (Jun 12, 5:50 AM)30.21 "Hg (Jun 12, 5:50 AM)
Low54 °F (Jun 18, 4:50 AM)39% (Jun 17, 4:50 PM)29.50 "Hg (Jun 15, 3:20 AM)
Average72 °F71%29.89 "Hg
* Reported Jun 12 1:20 AM — Jun 27 1:20 AM, Verona, Weather by CustomWeather, © 2016

Note: Actual official high and low records may vary slightly from our data, if they occured in-between our weather recording intervals... More about our weather records

Advertising

Verona Weather History for the Previous 24 Hours

Scroll right to see more
 ConditionsComfort  
Time TempWeatherWind HumidityBarometerVisibility
1:20 AM
Mon, Jun 27
70 °FPassing clouds.8 mph88%29.86 "HgN/A
12:50 AM70 °FThunderstorms. Partly cloudy.9 mph83%29.89 "Hg4 mi
12:20 AM72 °FThunderstorms. Partly cloudy.9 mph94%29.89 "Hg4 mi
11:50 PM
Sun, Jun 26
72 °FThundershowers. Passing clouds.2 mph94%29.89 "Hg5 mi
11:20 PM72 °FThundershowers. Passing clouds.2 mph94%29.86 "Hg5 mi
10:50 PM72 °FPassing clouds.2 mph94%29.86 "HgN/A
10:20 PM72 °FPassing clouds.2 mph94%29.86 "HgN/A
9:50 PM72 °FScattered clouds.2 mph88%29.83 "HgN/A
9:20 PM72 °FThunderstorms. Partly sunny.3 mph88%29.83 "HgN/A
8:50 PM77 °FThunderstorms. Broken clouds.8 mph79%29.86 "Hg4 mi
3:20 PM84 °FScattered clouds.9 mph58%29.89 "HgN/A
2:50 PM84 °FScattered clouds.10 mph55%29.89 "HgN/A
2:20 PM84 °FScattered clouds.12 mph55%29.89 "HgN/A
1:50 PM84 °FPassing clouds.12 mph51%29.89 "HgN/A
1:20 PM84 °FPassing clouds.12 mph51%29.89 "HgN/A
12:50 PM82 °FPassing clouds.13 mph55%29.89 "HgN/A
12:20 PM82 °FScattered clouds.10 mph51%29.89 "HgN/A
11:50 AM82 °FScattered clouds.13 mph51%29.89 "HgN/A
11:20 AM82 °FScattered clouds.12 mph51%29.89 "HgN/A
10:50 AM81 °FBroken clouds.9 mph54%29.89 "HgN/A
10:20 AM81 °FPartly sunny.8 mph66%29.89 "HgN/A
9:50 AM79 °FPartly sunny.8 mph70%29.89 "HgN/A
9:20 AM77 °FPartly sunny.3 mph69%29.89 "HgN/A
8:50 AM77 °FScattered clouds.1 mph69%29.89 "HgN/A
8:20 AM75 °FScattered clouds.1 mph74%29.89 "HgN/A
7:50 AM73 °FScattered clouds.2 mph74%29.89 "HgN/A
7:20 AM72 °FScattered clouds.2 mph83%29.89 "HgN/A
6:50 AM70 °FScattered clouds.3 mph83%29.89 "HgN/A
6:20 AM70 °FPassing clouds.1 mph83%29.86 "HgN/A
5:50 AM68 °FPassing clouds.3 mph83%29.86 "HgN/A
5:20 AM68 °FPassing clouds.1 mph83%29.86 "HgN/A
4:50 AM68 °FPassing clouds.2 mph88%29.86 "HgN/A
4:20 AM70 °FPassing clouds.2 mph83%29.86 "HgN/A
3:50 AM68 °FPassing clouds.3 mph83%29.83 "HgN/A
3:20 AM68 °FPassing clouds.2 mph83%29.83 "HgN/A
2:50 AM70 °FPassing clouds.3 mph78%29.83 "HgN/A
2:20 AM70 °FPassing clouds.5 mph78%29.83 "HgN/A
Weather by CustomWeather, © 2016

See weather overviewHow to use our weather pages